| time (UTC) | temp F | wind direction | speed knots | gust knots | rain 1hr in | rain 24hr in | rain mn in | humidity % | barometer mb |
| 20260507235918 | 63 | 320 | 0.9 | 1.7 | 0.00 | 0.00 | 0.00 | 62 | 1017.7 |
| 20260507235415 | 64 | 256 | 0.0 | 0.0 | 0.00 | 0.00 | 0.00 | 60 | 1017.8 |
| 20260507234912 | 64 | 285 | 1.7 | 2.6 | 0.00 | 0.00 | 0.00 | 61 | 1018.0 |
| 20260507234409 | 64 | 316 | 0.0 | 0.0 | 0.00 | 0.00 | 0.00 | 60 | 1017.8 |
| 20260507233906 | 63 | 283 | 5.2 | 6.1 | 0.00 | 0.00 | 0.00 | 61 | 1017.8 |
| 20260507233403 | 64 | 261 | 4.3 | 5.2 | 0.00 | 0.00 | 0.00 | 60 | 1017.7 |
| 20260507232901 | 63 | 311 | 1.7 | 2.6 | 0.00 | 0.00 | 0.00 | 61 | 1018.0 |
| 20260507232357 | 65 | 284 | 2.6 | 5.2 | 0.00 | 0.00 | 0.00 | 60 | 1017.9 |
| 20260507231855 | 63 | 302 | 3.5 | 5.2 | 0.00 | 0.00 | 0.00 | 61 | 1017.9 |
| 20260507231351 | 64 | 297 | 5.2 | 7.0 | 0.00 | 0.00 | 0.00 | 60 | 1018.0 |
| 20260507230848 | 64 | 296 | 0.0 | 0.9 | 0.00 | 0.00 | 0.00 | 61 | 1018.2 |
| 20260507230345 | 63 | 259 | 3.5 | 6.1 | 0.00 | 0.00 | 0.00 | 61 | 1018.2 |
| 20260507225845 | 62 | 325 | 3.5 | 5.2 | 0.00 | 0.00 | 0.00 | 61 | 1018.1 |
| 20260507225341 | 64 | 301 | 4.3 | 6.1 | 0.00 | 0.00 | 0.00 | 60 | 1018.3 |
| 20260507224837 | 63 | 306 | 2.6 | 4.3 | 0.00 | 0.00 | 0.00 | 61 | 1018.4 |
| 20260507224334 | 63 | 320 | 2.6 | 4.3 | 0.00 | 0.00 | 0.00 | 61 | 1018.5 |
| 20260507223830 | 64 | 257 | 5.2 | 6.1 | 0.00 | 0.00 | 0.00 | 60 | 1018.3 |
| 20260507223326 | 63 | 241 | 3.5 | 5.2 | 0.00 | 0.00 | 0.00 | 60 | 1018.3 |
| 20260507222824 | 63 | 294 | 0.9 | 0.9 | 0.00 | 0.00 | 0.00 | 61 | 1018.5 |
| 20260507222320 | 66 | 303 | 5.2 | 7.0 | 0.00 | 0.00 | 0.00 | 57 | 1018.6 |
| 20260507221817 | 64 | 261 | 3.5 | 5.2 | 0.00 | 0.00 | 0.00 | 59 | 1018.5 |
| 20260507221314 | 65 | 268 | 0.9 | 1.7 | 0.00 | 0.00 | 0.00 | 59 | 1018.5 |
| 20260507220810 | 65 | 295 | 5.2 | 7.0 | 0.00 | 0.00 | 0.00 | 57 | 1018.4 |
| 20260507220308 | 66 | 305 | 4.3 | 5.2 | 0.00 | 0.00 | 0.00 | 56 | 1018.6 |
| 20260507215804 | 65 | 304 | 0.9 | 0.9 | 0.00 | 0.00 | 0.00 | 58 | 1018.6 |
| 20260507215306 | 66 | 305 | 0.9 | 1.7 | 0.00 | 0.00 | 0.00 | 57 | 1018.5 |
| 20260507214759 | 65 | 334 | 2.6 | 4.3 | 0.00 | 0.00 | 0.00 | 58 | 1018.6 |
| 20260507214256 | 63 | 315 | 0.0 | 0.0 | 0.00 | 0.00 | 0.00 | 61 | 1018.9 |
| 20260507213750 | 65 | 243 | 2.6 | 2.6 | 0.00 | 0.00 | 0.00 | 58 | 1018.9 |
| 20260507213248 | 62 | 178 | 1.7 | 2.6 | 0.00 | 0.00 | 0.00 | 63 | 1018.9 |
| 20260507212745 | 63 | 223 | 3.5 | 5.2 | 0.00 | 0.00 | 0.00 | 62 | 1018.7 |
| 20260507212241 | 64 | 264 | 4.3 | 7.0 | 0.00 | 0.00 | 0.00 | 60 | 1019.0 |
| 20260507211737 | 63 | 319 | 0.9 | 0.9 | 0.00 | 0.00 | 0.00 | 60 | 1019.0 |
| 20260507211234 | 64 | 319 | 2.6 | 4.3 | 0.00 | 0.00 | 0.00 | 59 | 1019.0 |
| 20260507210731 | 63 | 290 | 0.9 | 0.9 | 0.00 | 0.00 | 0.00 | 62 | 1019.0 |
| 20260507210228 | 63 | 276 | 2.6 | 4.3 | 0.00 | 0.00 | 0.00 | 61 | 1019.2 |
| 20260507205724 | 62 | 227 | 1.7 | 2.6 | 0.00 | 0.00 | 0.00 | 63 | 1019.3 |
| 20260507205221 | 63 | 298 | 0.9 | 0.9 | 0.00 | 0.00 | 0.00 | 63 | 1019.4 |
| 20260507204717 | 63 | 183 | 2.6 | 2.6 | 0.00 | 0.00 | 0.00 | 62 | 1019.3 |
| 20260507204215 | 63 | 266 | 3.5 | 5.2 | 0.00 | 0.00 | 0.00 | 62 | 1019.4 |
| 20260507203713 | 62 | 273 | 4.3 | 6.1 | 0.00 | 0.00 | 0.00 | 64 | 1019.4 |
| 20260507203210 | 63 | 201 | 0.9 | 1.7 | 0.00 | 0.00 | 0.00 | 61 | 1019.4 |
| 20260507202706 | 60 | 285 | 2.6 | 2.6 | 0.00 | 0.00 | 0.00 | 66 | 1019.5 |
| 20260507202202 | 60 | 348 | 2.6 | 4.3 | 0.00 | 0.00 | 0.00 | 66 | 1019.6 |
| 20260507201657 | 60 | 257 | 2.6 | 2.6 | 0.00 | 0.00 | 0.00 | 68 | 1019.8 |
| 20260507201154 | 60 | 260 | 5.2 | 6.1 | 0.00 | 0.00 | 0.00 | 65 | 1019.7 |
| 20260507200650 | 60 | 267 | 2.6 | 2.6 | 0.00 | 0.00 | 0.00 | 66 | 1019.5 |
| 20260507200146 | 60 | 176 | 1.7 | 1.7 | 0.00 | 0.00 | 0.00 | 67 | 1019.8 |
| 20260507195643 | 61 | 214 | 3.5 | 4.3 | 0.00 | 0.00 | 0.00 | 63 | 1019.8 |
| 20260507195140 | 61 | 107 | 2.6 | 4.3 | 0.00 | 0.00 | 0.00 | 63 | 1019.8 |
| 20260507194637 | 61 | 41 | 1.7 | 1.7 | 0.00 | 0.00 | 0.00 | 64 | 1019.7 |
| 20260507194132 | 61 | 348 | 0.9 | 0.9 | 0.00 | 0.00 | 0.00 | 64 | 1019.8 |
| 20260507193630 | 62 | 261 | 0.0 | 0.9 | 0.00 | 0.00 | 0.00 | 62 | 1020.0 |
| 20260507193127 | 61 | 273 | 0.0 | 0.9 | 0.00 | 0.00 | 0.00 | 65 | 1020.0 |
| 20260507192623 | 61 | 161 | 0.9 | 1.7 | 0.00 | 0.00 | 0.00 | 64 | 1019.9 |
| 20260507192120 | 60 | 304 | 0.0 | 0.9 | 0.00 | 0.00 | 0.00 | 66 | 1019.9 |
| 20260507191616 | 59 | 271 | 0.9 | 2.6 | 0.00 | 0.00 | 0.00 | 67 | 1019.7 |
| 20260507191112 | 60 | 257 | 2.6 | 2.6 | 0.00 | 0.00 | 0.00 | 66 | 1020.0 |
| 20260507190610 | 60 | 297 | 4.3 | 5.2 | 0.00 | 0.00 | 0.00 | 65 | 1020.1 |
| 20260507190109 | 59 | 253 | 2.6 | 2.6 | 0.00 | 0.00 | 0.00 | 68 | 1020.1 |
| 20260507185607 | 59 | 217 | 4.3 | 5.2 | 0.00 | 0.00 | 0.00 | 67 | 1020.1 |
| 20260507185103 | 59 | 229 | 0.9 | 0.9 | 0.00 | 0.00 | 0.00 | 67 | 1020.2 |
| 20260507184601 | 59 | 197 | 2.6 | 2.6 | 0.00 | 0.00 | 0.00 | 65 | 1020.1 |
| 20260507184059 | 59 | 162 | 5.2 | 6.1 | 0.00 | 0.00 | 0.00 | 67 | 1020.2 |
| 20260507183554 | 58 | 125 | 0.0 | 0.9 | 0.00 | 0.00 | 0.00 | 69 | 1020.2 |
| 20260507183052 | 59 | 115 | 2.6 | 4.3 | 0.00 | 0.00 | 0.00 | 68 | 1020.1 |
| 20260507182548 | 58 | 198 | 5.2 | 7.0 | 0.00 | 0.00 | 0.00 | 68 | 1020.0 |
| 20260507182044 | 57 | 172 | 4.3 | 5.2 | 0.00 | 0.00 | 0.00 | 71 | 1020.2 |
| 20260507181541 | 57 | 162 | 6.1 | 6.1 | 0.00 | 0.00 | 0.00 | 73 | 1020.1 |
| 20260507181037 | 59 | 192 | 3.5 | 4.3 | 0.00 | 0.00 | 0.00 | 70 | 1020.1 |
| 20260507180534 | 60 | 224 | 0.9 | 2.6 | 0.00 | 0.00 | 0.00 | 67 | 1020.1 |
| 20260507180031 | 59 | 278 | 1.7 | 2.6 | 0.00 | 0.00 | 0.00 | 70 | 1020.3 |
| 20260507175527 | 60 | 186 | 4.3 | 6.1 | 0.00 | 0.00 | 0.00 | 68 | 1020.2 |
| 20260507175025 | 59 | 197 | 3.5 | 5.2 | 0.00 | 0.00 | 0.00 | 70 | 1020.3 |
| 20260507174521 | 60 | 268 | 5.2 | 7.0 | 0.00 | 0.00 | 0.00 | 69 | 1020.2 |
| 20260507174019 | 59 | 236 | 3.5 | 5.2 | 0.00 | 0.00 | 0.00 | 71 | 1020.5 |
| 20260507173516 | 58 | 237 | 2.6 | 2.6 | 0.00 | 0.00 | 0.00 | 72 | 1020.4 |
| 20260507173014 | 59 | 189 | 4.3 | 5.2 | 0.00 | 0.00 | 0.00 | 71 | 1020.2 |
| 20260507172509 | 58 | 152 | 4.3 | 5.2 | 0.00 | 0.00 | 0.00 | 73 | 1020.5 |
| 20260507172006 | 59 | 264 | 1.7 | 4.3 | 0.00 | 0.00 | 0.00 | 71 | 1020.5 |
| 20260507171502 | 57 | 258 | 2.6 | 4.3 | 0.00 | 0.00 | 0.00 | 75 | 1020.4 |
| 20260507171000 | 57 | 257 | 6.1 | 7.0 | 0.00 | 0.00 | 0.00 | 75 | 1020.4 |
| 20260507170456 | 56 | 229 | 4.3 | 5.2 | 0.00 | 0.00 | 0.00 | 76 | 1020.5 |
| 20260507165952 | 56 | 227 | 2.6 | 2.6 | 0.00 | 0.00 | 0.00 | 76 | 1020.3 |
| 20260507165448 | 56 | 226 | 4.3 | 6.1 | 0.00 | 0.00 | 0.00 | 77 | 1020.2 |
| 20260507164944 | 56 | 230 | 0.9 | 1.7 | 0.00 | 0.00 | 0.00 | 78 | 1020.4 |
| 20260507164441 | 55 | 193 | 2.6 | 2.6 | 0.00 | 0.00 | 0.00 | 80 | 1020.6 |
| 20260507163938 | 55 | 214 | 3.5 | 5.2 | 0.00 | 0.00 | 0.00 | 80 | 1020.6 |
| 20260507163435 | 55 | 197 | 7.0 | 7.8 | 0.00 | 0.00 | 0.00 | 78 | 1020.6 |
| 20260507162932 | 55 | 204 | 3.5 | 4.3 | 0.00 | 0.00 | 0.00 | 79 | 1020.6 |
| 20260507162427 | 55 | 201 | 4.3 | 6.1 | 0.00 | 0.00 | 0.00 | 80 | 1020.4 |
| 20260507161925 | 55 | 187 | 2.6 | 2.6 | 0.00 | 0.00 | 0.00 | 79 | 1020.5 |
| 20260507161421 | 55 | 238 | 3.5 | 4.3 | 0.00 | 0.00 | 0.00 | 80 | 1020.3 |
| 20260507160918 | 54 | 252 | 2.6 | 4.3 | 0.00 | 0.00 | 0.00 | 81 | 1020.7 |
| 20260507160414 | 55 | 275 | 4.3 | 5.2 | 0.00 | 0.00 | 0.00 | 79 | 1020.6 |
| 20260507155910 | 55 | 238 | 0.9 | 1.7 | 0.00 | 0.00 | 0.00 | 81 | 1020.6 |
| 20260507155406 | 55 | 260 | 0.9 | 0.9 | 0.00 | 0.00 | 0.00 | 81 | 1020.5 |
| 20260507154903 | 54 | 270 | 1.7 | 1.7 | 0.00 | 0.00 | 0.00 | 82 | 1020.6 |
| 20260507154400 | 53 | 204 | 2.6 | 2.6 | 0.00 | 0.00 | 0.00 | 84 | 1020.7 |
| 20260507153857 | 53 | 259 | 2.6 | 2.6 | 0.00 | 0.00 | 0.00 | 84 | 1021.0 |
| 20260507153353 | 53 | 236 | 2.6 | 2.6 | 0.00 | 0.00 | 0.00 | 84 | 1020.7 |
| 20260507152850 | 54 | 234 | 2.6 | 4.3 | 0.00 | 0.00 | 0.00 | 84 | 1020.7 |
| 20260507152347 | 54 | 273 | 1.7 | 2.6 | 0.00 | 0.00 | 0.00 | 84 | 1020.7 |
| 20260507151843 | 52 | 285 | 0.9 | 1.7 | 0.00 | 0.00 | 0.00 | 86 | 1020.7 |
| 20260507151339 | 53 | 268 | 2.6 | 4.3 | 0.00 | 0.00 | 0.00 | 86 | 1020.7 |
| 20260507150836 | 53 | 260 | 1.7 | 1.7 | 0.00 | 0.00 | 0.00 | 86 | 1020.7 |
| 20260507150333 | 52 | 267 | 5.2 | 6.1 | 0.00 | 0.00 | 0.00 | 86 | 1020.6 |
| 20260507145829 | 51 | 246 | 2.6 | 2.6 | 0.00 | 0.00 | 0.00 | 87 | 1020.6 |
| 20260507145325 | 52 | 238 | 2.6 | 4.3 | 0.00 | 0.00 | 0.00 | 87 | 1020.5 |
| 20260507144823 | 52 | 275 | 4.3 | 5.2 | 0.00 | 0.00 | 0.00 | 87 | 1020.6 |
| 20260507144320 | 52 | 254 | 3.5 | 4.3 | 0.00 | 0.00 | 0.00 | 88 | 1020.6 |
| 20260507143816 | 51 | 273 | 1.7 | 1.7 | 0.00 | 0.00 | 0.00 | 89 | 1020.8 |
| 20260507143314 | 51 | 263 | 0.0 | 0.9 | 0.00 | 0.00 | 0.00 | 90 | 1020.6 |
| 20260507142809 | 51 | 231 | 0.9 | 0.9 | 0.00 | 0.00 | 0.00 | 90 | 1020.4 |
| 20260507142307 | 51 | 243 | 1.7 | 2.6 | 0.00 | 0.00 | 0.00 | 90 | 1020.7 |
| 20260507141803 | 51 | 210 | 1.7 | 1.7 | 0.00 | 0.00 | 0.00 | 90 | 1020.6 |
| 20260507141300 | 51 | 201 | 3.5 | 4.3 | 0.00 | 0.00 | 0.00 | 90 | 1020.5 |
| 20260507140756 | 51 | 234 | 0.9 | 0.9 | 0.00 | 0.00 | 0.00 | 90 | 1020.4 |
| 20260507140253 | 51 | 286 | 0.9 | 0.9 | 0.00 | 0.00 | 0.00 | 90 | 1020.4 |
| 20260507135750 | 51 | 276 | 0.9 | 1.7 | 0.00 | 0.00 | 0.00 | 90 | 1020.4 |
| 20260507135248 | 51 | 242 | 0.9 | 1.7 | 0.00 | 0.00 | 0.00 | 90 | 1020.6 |
| 20260507134744 | 51 | 258 | 0.9 | 0.9 | 0.00 | 0.00 | 0.00 | 90 | 1020.4 |
| 20260507134241 | 51 | 249 | 2.6 | 4.3 | 0.00 | 0.00 | 0.00 | 91 | 1020.5 |
| 20260507133736 | 51 | 271 | 0.9 | 0.9 | 0.00 | 0.00 | 0.00 | 91 | 1020.3 |
| 20260507133233 | 51 | 270 | 1.7 | 1.7 | 0.00 | 0.00 | 0.00 | 91 | 1020.2 |
| 20260507132731 | 51 | 252 | 2.6 | 4.3 | 0.00 | 0.00 | 0.00 | 91 | 1020.5 |
| 20260507132227 | 51 | 262 | 1.7 | 1.7 | 0.00 | 0.00 | 0.00 | 91 | 1020.4 |
| 20260507131724 | 51 | 251 | 2.6 | 2.6 | 0.00 | 0.00 | 0.00 | 91 | 1020.3 |
| 20260507131221 | 51 | 282 | 1.7 | 1.7 | 0.00 | 0.00 | 0.00 | 90 | 1020.5 |
| 20260507130718 | 51 | 278 | 1.7 | 2.6 | 0.00 | 0.00 | 0.00 | 90 | 1020.1 |
| 20260507130216 | 51 | 291 | 0.9 | 0.9 | 0.00 | 0.00 | 0.00 | 90 | 1020.4 |
| 20260507125714 | 51 | 279 | 0.0 | 0.0 | 0.00 | 0.00 | 0.00 | 90 | 1020.6 |
| 20260507125212 | 51 | 269 | 0.0 | 0.0 | 0.00 | 0.00 | 0.00 | 90 | 1020.4 |
| 20260507124708 | 51 | 267 | 0.0 | 0.9 | 0.00 | 0.00 | 0.00 | 90 | 1020.3 |
| 20260507124205 | 51 | 267 | 0.0 | 0.0 | 0.00 | 0.00 | 0.00 | 89 | 1020.3 |
| 20260507123703 | 51 | 264 | 0.9 | 0.9 | 0.00 | 0.00 | 0.00 | 89 | 1020.3 |
| 20260507123200 | 51 | 258 | 1.7 | 1.7 | 0.00 | 0.00 | 0.00 | 89 | 1020.5 |
| 20260507122655 | 51 | 249 | 0.9 | 0.9 | 0.00 | 0.00 | 0.00 | 89 | 1020.6 |
| 20260507122151 | 51 | 250 | 0.0 | 0.0 | 0.00 | 0.00 | 0.00 | 89 | 1020.5 |
| 20260507121648 | 51 | 247 | 0.0 | 0.0 | 0.00 | 0.00 | 0.00 | 89 | 1020.5 |
| 20260507121144 | 51 | 247 | 0.0 | 0.0 | 0.00 | 0.00 | 0.00 | 89 | 1020.6 |
| 20260507120640 | 51 | 235 | 0.0 | 0.0 | 0.00 | 0.00 | 0.00 | 89 | 1020.5 |
| 20260507120137 | 51 | 235 | 0.0 | 0.0 | 0.00 | 0.00 | 0.00 | 89 | 1020.6 |
| 20260507115633 | 51 | 233 | 0.9 | 0.9 | 0.00 | 0.00 | 0.00 | 88 | 1020.5 |
| 20260507115128 | 51 | 204 | 3.5 | 4.3 | 0.00 | 0.00 | 0.00 | 89 | 1020.5 |
| 20260507114625 | 51 | 236 | 0.9 | 0.9 | 0.00 | 0.00 | 0.00 | 88 | 1020.5 |
| 20260507114122 | 51 | 227 | 0.0 | 0.9 | 0.00 | 0.00 | 0.00 | 88 | 1020.4 |
| 20260507113619 | 51 | 198 | 3.5 | 4.3 | 0.00 | 0.00 | 0.00 | 88 | 1020.6 |
| 20260507113116 | 51 | 217 | 2.6 | 2.6 | 0.00 | 0.00 | 0.00 | 88 | 1020.7 |
| 20260507112614 | 51 | 211 | 3.5 | 4.3 | 0.00 | 0.00 | 0.00 | 88 | 1020.7 |
| 20260507112111 | 51 | 183 | 5.2 | 6.1 | 0.00 | 0.00 | 0.00 | 88 | 1020.8 |
| 20260507111608 | 51 | 203 | 1.7 | 1.7 | 0.00 | 0.00 | 0.00 | 87 | 1021.0 |
| 20260507111104 | 51 | 207 | 4.3 | 5.2 | 0.00 | 0.00 | 0.00 | 87 | 1020.8 |
| 20260507110601 | 51 | 206 | 3.5 | 4.3 | 0.00 | 0.00 | 0.00 | 88 | 1020.7 |
| 20260507110057 | 51 | 196 | 2.6 | 2.6 | 0.00 | 0.00 | 0.00 | 87 | 1020.9 |
| 20260507105554 | 51 | 214 | 2.6 | 2.6 | 0.00 | 0.00 | 0.00 | 87 | 1020.9 |
| 20260507105050 | 52 | 174 | 3.5 | 5.2 | 0.00 | 0.00 | 0.00 | 88 | 1020.9 |
| 20260507104548 | 52 | 211 | 2.6 | 2.6 | 0.00 | 0.00 | 0.00 | 88 | 1020.9 |
| 20260507104044 | 52 | 196 | 3.5 | 4.3 | 0.00 | 0.00 | 0.00 | 88 | 1020.9 |
| 20260507103540 | 52 | 206 | 2.6 | 2.6 | 0.00 | 0.00 | 0.00 | 88 | 1020.9 |
| 20260507103037 | 52 | 216 | 0.9 | 0.9 | 0.00 | 0.00 | 0.00 | 88 | 1021.1 |
| 20260507102534 | 52 | 225 | 0.0 | 0.0 | 0.00 | 0.00 | 0.00 | 88 | 1021.0 |
| 20260507102031 | 52 | 198 | 3.5 | 4.3 | 0.00 | 0.00 | 0.00 | 88 | 1021.1 |
| 20260507101525 | 52 | 174 | 4.3 | 5.2 | 0.00 | 0.00 | 0.00 | 88 | 1021.0 |
| 20260507101022 | 52 | 202 | 1.7 | 1.7 | 0.00 | 0.00 | 0.00 | 88 | 1020.9 |
| 20260507100519 | 52 | 185 | 4.3 | 4.3 | 0.00 | 0.00 | 0.00 | 88 | 1021.0 |
| 20260507100017 | 52 | 176 | 4.3 | 6.1 | 0.00 | 0.00 | 0.00 | 88 | 1021.0 |
| 20260507095515 | 52 | 167 | 2.6 | 2.6 | 0.00 | 0.00 | 0.00 | 88 | 1021.1 |
| 20260507095011 | 52 | 201 | 2.6 | 2.6 | 0.00 | 0.00 | 0.00 | 89 | 1021.2 |
| 20260507094508 | 52 | 199 | 2.6 | 4.3 | 0.00 | 0.00 | 0.00 | 89 | 1021.1 |
| 20260507094005 | 51 | 223 | 0.0 | 0.9 | 0.00 | 0.00 | 0.00 | 89 | 1021.1 |
| 20260507093502 | 51 | 202 | 2.6 | 2.6 | 0.00 | 0.00 | 0.00 | 89 | 1021.1 |
| 20260507093001 | 51 | 210 | 1.7 | 1.7 | 0.00 | 0.00 | 0.00 | 90 | 1021.1 |
| 20260507092456 | 51 | 202 | 0.9 | 2.6 | 0.00 | 0.00 | 0.00 | 90 | 1020.9 |
| 20260507091953 | 51 | 206 | 1.7 | 2.6 | 0.00 | 0.00 | 0.00 | 90 | 1020.9 |
| 20260507091450 | 51 | 207 | 0.9 | 0.9 | 0.00 | 0.00 | 0.00 | 90 | 1021.0 |
| 20260507090946 | 51 | 276 | 0.0 | 0.0 | 0.00 | 0.00 | 0.00 | 90 | 1020.8 |
| 20260507090442 | 51 | 191 | 2.6 | 2.6 | 0.00 | 0.00 | 0.00 | 90 | 1021.1 |
| 20260507085939 | 51 | 214 | 0.9 | 1.7 | 0.00 | 0.00 | 0.00 | 90 | 1021.0 |
| 20260507085436 | 51 | 251 | 0.9 | 1.7 | 0.00 | 0.00 | 0.00 | 90 | 1021.0 |
| 20260507084933 | 51 | 271 | 1.7 | 1.7 | 0.00 | 0.00 | 0.00 | 90 | 1021.3 |
| 20260507084430 | 51 | 255 | 0.0 | 0.9 | 0.00 | 0.00 | 0.00 | 91 | 1021.1 |
| 20260507083927 | 51 | 215 | 0.0 | 0.0 | 0.00 | 0.00 | 0.00 | 91 | 1021.0 |
| 20260507083423 | 51 | 194 | 5.2 | 6.1 | 0.00 | 0.00 | 0.00 | 91 | 1021.0 |
| 20260507082919 | 51 | 208 | 2.6 | 4.3 | 0.00 | 0.00 | 0.00 | 91 | 1021.0 |
| 20260507082416 | 52 | 235 | 0.9 | 1.7 | 0.00 | 0.00 | 0.00 | 92 | 1020.9 |
| 20260507081913 | 51 | 216 | 1.7 | 1.7 | 0.00 | 0.00 | 0.00 | 92 | 1020.9 |
| 20260507081409 | 51 | 251 | 0.0 | 0.0 | 0.00 | 0.00 | 0.00 | 92 | 1021.1 |
| 20260507080906 | 52 | 224 | 2.6 | 2.6 | 0.00 | 0.00 | 0.00 | 92 | 1020.7 |
| 20260507080402 | 52 | 235 | 1.7 | 1.7 | 0.00 | 0.00 | 0.00 | 92 | 1020.7 |
| 20260507075857 | 52 | 191 | 1.7 | 2.6 | 0.00 | 0.00 | 0.00 | 92 | 1020.8 |
| 20260507075353 | 52 | 265 | 0.9 | 1.7 | 0.00 | 0.00 | 0.00 | 92 | 1020.9 |
| 20260507074850 | 52 | 254 | 0.9 | 0.9 | 0.00 | 0.00 | 0.00 | 92 | 1020.8 |
| 20260507074347 | 52 | 222 | 0.9 | 0.9 | 0.00 | 0.00 | 0.00 | 92 | 1020.9 |
| 20260507073844 | 52 | 210 | 2.6 | 2.6 | 0.00 | 0.00 | 0.00 | 92 | 1020.8 |
| 20260507073341 | 52 | 233 | 2.6 | 4.3 | 0.00 | 0.00 | 0.00 | 92 | 1020.6 |
| 20260507072838 | 52 | 204 | 5.2 | 6.1 | 0.00 | 0.00 | 0.00 | 92 | 1020.7 |
| 20260507072336 | 52 | 242 | 0.9 | 1.7 | 0.00 | 0.00 | 0.00 | 92 | 1020.6 |
| 20260507071833 | 52 | 223 | 2.6 | 2.6 | 0.00 | 0.00 | 0.00 | 92 | 1020.9 |
| 20260507071330 | 53 | 220 | 0.9 | 0.9 | 0.00 | 0.00 | 0.00 | 92 | 1020.6 |
| 20260507070826 | 53 | 214 | 5.2 | 6.1 | 0.00 | 0.00 | 0.00 | 92 | 1020.7 |
| 20260507070324 | 53 | 204 | 2.6 | 2.6 | 0.00 | 0.00 | 0.00 | 92 | 1020.6 |
| 20260507065820 | 53 | 243 | 0.9 | 1.7 | 0.00 | 0.00 | 0.00 | 92 | 1020.6 |
| 20260507065317 | 53 | 188 | 7.0 | 8.7 | 0.00 | 0.00 | 0.00 | 91 | 1020.9 |
| 20260507064814 | 53 | 176 | 3.5 | 4.3 | 0.00 | 0.00 | 0.00 | 91 | 1020.7 |
| 20260507064313 | 53 | 201 | 3.5 | 5.2 | 0.00 | 0.00 | 0.00 | 91 | 1020.6 |
| 20260507063810 | 53 | 196 | 5.2 | 6.1 | 0.00 | 0.00 | 0.00 | 91 | 1020.6 |
| 20260507063307 | 53 | 213 | 0.9 | 1.7 | 0.00 | 0.00 | 0.00 | 91 | 1020.6 |
| 20260507062804 | 53 | 196 | 1.7 | 2.6 | 0.00 | 0.00 | 0.00 | 91 | 1020.6 |
| 20260507062301 | 53 | 202 | 6.1 | 6.1 | 0.00 | 0.00 | 0.00 | 91 | 1020.6 |
| 20260507061759 | 53 | 200 | 1.7 | 2.6 | 0.00 | 0.00 | 0.00 | 91 | 1020.7 |
| 20260507061256 | 53 | 194 | 2.6 | 2.6 | 0.00 | 0.00 | 0.00 | 91 | 1020.8 |
| 20260507060754 | 53 | 215 | 4.3 | 6.1 | 0.00 | 0.00 | 0.00 | 90 | 1020.6 |
| 20260507060251 | 53 | 217 | 2.6 | 2.6 | 0.00 | 0.00 | 0.00 | 90 | 1020.8 |
| 20260507055747 | 53 | 171 | 4.3 | 5.2 | 0.00 | 0.00 | 0.00 | 90 | 1020.8 |
| 20260507055243 | 53 | 201 | 6.1 | 6.1 | 0.00 | 0.00 | 0.00 | 90 | 1020.6 |
| 20260507054739 | 53 | 208 | 2.6 | 4.3 | 0.00 | 0.00 | 0.00 | 90 | 1020.8 |
| 20260507054236 | 53 | 201 | 4.3 | 4.3 | 0.00 | 0.00 | 0.00 | 90 | 1020.7 |
| 20260507053733 | 54 | 190 | 3.5 | 5.2 | 0.00 | 0.00 | 0.00 | 90 | 1020.8 |
| 20260507053231 | 54 | 206 | 1.7 | 1.7 | 0.00 | 0.00 | 0.00 | 89 | 1020.9 |
| 20260507052730 | 54 | 226 | 0.9 | 0.9 | 0.00 | 0.00 | 0.00 | 89 | 1020.7 |
| 20260507052225 | 54 | 212 | 0.9 | 1.7 | 0.00 | 0.00 | 0.00 | 89 | 1020.7 |
| 20260507051724 | 54 | 200 | 3.5 | 4.3 | 0.00 | 0.00 | 0.00 | 89 | 1020.8 |
| 20260507051220 | 54 | 238 | 2.6 | 4.3 | 0.00 | 0.00 | 0.00 | 89 | 1020.7 |
| 20260507050717 | 54 | 204 | 3.5 | 4.3 | 0.00 | 0.00 | 0.00 | 88 | 1020.7 |
| 20260507050214 | 54 | 198 | 3.5 | 4.3 | 0.00 | 0.00 | 0.00 | 88 | 1020.9 |
| 20260507045711 | 55 | 207 | 1.7 | 1.7 | 0.00 | 0.00 | 0.00 | 87 | 1020.9 |
| 20260507045207 | 55 | 180 | 4.3 | 6.1 | 0.00 | 0.00 | 0.00 | 87 | 1020.8 |
| 20260507044704 | 55 | 195 | 0.9 | 2.6 | 0.00 | 0.00 | 0.00 | 87 | 1020.8 |
| 20260507044201 | 55 | 214 | 0.9 | 0.9 | 0.00 | 0.00 | 0.00 | 87 | 1020.9 |
| 20260507043657 | 55 | 214 | 2.6 | 2.6 | 0.00 | 0.00 | 0.00 | 86 | 1020.9 |
| 20260507043154 | 55 | 199 | 6.1 | 7.0 | 0.00 | 0.00 | 0.00 | 86 | 1020.8 |
| 20260507042650 | 55 | 246 | 0.9 | 0.9 | 0.00 | 0.00 | 0.00 | 86 | 1020.8 |
| 20260507042145 | 55 | 221 | 3.5 | 4.3 | 0.00 | 0.00 | 0.00 | 86 | 1020.9 |
| 20260507041643 | 55 | 219 | 2.6 | 2.6 | 0.00 | 0.00 | 0.00 | 86 | 1020.6 |
| 20260507041139 | 55 | 216 | 3.5 | 4.3 | 0.00 | 0.00 | 0.00 | 86 | 1020.7 |
| 20260507040636 | 55 | 200 | 3.5 | 4.3 | 0.00 | 0.00 | 0.00 | 85 | 1020.5 |
| 20260507040132 | 55 | 178 | 3.5 | 5.2 | 0.00 | 0.00 | 0.00 | 85 | 1020.8 |
| 20260507035628 | 55 | 201 | 3.5 | 4.3 | 0.00 | 0.00 | 0.00 | 85 | 1020.6 |
| 20260507035124 | 55 | 203 | 0.9 | 1.7 | 0.00 | 0.00 | 0.00 | 85 | 1020.5 |
| 20260507034621 | 55 | 190 | 2.6 | 2.6 | 0.00 | 0.00 | 0.00 | 84 | 1020.5 |
| 20260507034119 | 56 | 200 | 1.7 | 1.7 | 0.00 | 0.00 | 0.00 | 84 | 1020.5 |
| 20260507033617 | 56 | 260 | 2.6 | 2.6 | 0.00 | 0.00 | 0.00 | 84 | 1020.5 |
| 20260507033114 | 56 | 196 | 3.5 | 4.3 | 0.00 | 0.00 | 0.00 | 83 | 1020.4 |
| 20260507032611 | 56 | 285 | 2.6 | 2.6 | 0.00 | 0.00 | 0.00 | 83 | 1020.4 |
| 20260507032107 | 56 | 250 | 0.0 | 0.0 | 0.00 | 0.00 | 0.00 | 83 | 1020.3 |
| 20260507031604 | 56 | 246 | 0.9 | 1.7 | 0.00 | 0.00 | 0.00 | 82 | 1020.2 |
| 20260507031101 | 56 | 259 | 0.9 | 0.9 | 0.00 | 0.00 | 0.00 | 82 | 1020.4 |
| 20260507030557 | 56 | 214 | 2.6 | 4.3 | 0.00 | 0.00 | 0.00 | 82 | 1020.4 |
| 20260507030056 | 56 | 252 | 2.6 | 2.6 | 0.00 | 0.00 | 0.00 | 82 | 1020.3 |
| 20260507025552 | 56 | 228 | 1.7 | 1.7 | 0.00 | 0.00 | 0.00 | 82 | 1020.3 |
| 20260507025049 | 56 | 212 | 2.6 | 4.3 | 0.00 | 0.00 | 0.00 | 82 | 1020.3 |
| 20260507024547 | 56 | 179 | 1.7 | 4.3 | 0.00 | 0.00 | 0.00 | 82 | 1020.2 |
| 20260507024044 | 56 | 231 | 2.6 | 5.2 | 0.00 | 0.00 | 0.00 | 82 | 1020.2 |
| 20260507023539 | 56 | 268 | 0.9 | 0.9 | 0.00 | 0.00 | 0.00 | 82 | 1020.3 |
| 20260507023038 | 57 | 276 | 2.6 | 4.3 | 0.00 | 0.00 | 0.00 | 81 | 1020.0 |
| 20260507022534 | 57 | 227 | 0.0 | 0.9 | 0.00 | 0.00 | 0.00 | 81 | 1019.9 |
| 20260507022029 | 57 | 209 | 1.7 | 2.6 | 0.00 | 0.00 | 0.00 | 81 | 1020.1 |
| 20260507021525 | 57 | 210 | 0.0 | 0.0 | 0.00 | 0.00 | 0.00 | 81 | 1020.1 |
| 20260507021022 | 57 | 216 | 4.3 | 6.1 | 0.00 | 0.00 | 0.00 | 81 | 1020.0 |
| 20260507020520 | 57 | 231 | 1.7 | 1.7 | 0.00 | 0.00 | 0.00 | 81 | 1019.8 |
| 20260507020016 | 57 | 206 | 3.5 | 4.3 | 0.00 | 0.00 | 0.00 | 81 | 1019.9 |
| 20260507015515 | 57 | 230 | 2.6 | 4.3 | 0.00 | 0.00 | 0.00 | 81 | 1019.9 |
| 20260507015012 | 57 | 234 | 0.9 | 0.9 | 0.00 | 0.00 | 0.00 | 81 | 1020.2 |
| 20260507014508 | 57 | 243 | 2.6 | 2.6 | 0.00 | 0.00 | 0.00 | 81 | 1020.1 |
| 20260507014004 | 56 | 254 | 0.9 | 1.7 | 0.00 | 0.00 | 0.00 | 82 | 1020.2 |
| 20260507013501 | 57 | 227 | 3.5 | 5.2 | 0.00 | 0.00 | 0.00 | 82 | 1020.2 |
| 20260507012958 | 57 | 212 | 7.0 | 8.7 | 0.00 | 0.00 | 0.00 | 81 | 1020.1 |
| 20260507012455 | 57 | 272 | 1.7 | 2.6 | 0.00 | 0.00 | 0.00 | 81 | 1020.2 |
| 20260507011951 | 57 | 223 | 2.6 | 2.6 | 0.00 | 0.00 | 0.00 | 82 | 1020.0 |
| 20260507011448 | 57 | 175 | 3.5 | 5.2 | 0.00 | 0.00 | 0.00 | 82 | 1020.1 |
| 20260507010944 | 57 | 191 | 4.3 | 5.2 | 0.00 | 0.00 | 0.00 | 81 | 1020.0 |
| 20260507010439 | 57 | 189 | 5.2 | 7.0 | 0.00 | 0.00 | 0.00 | 81 | 1020.2 |
| 20260507005936 | 57 | 212 | 2.6 | 2.6 | 0.00 | 0.00 | 0.00 | 81 | 1020.1 |
| 20260507005433 | 57 | 214 | 4.3 | 5.2 | 0.00 | 0.00 | 0.00 | 81 | 1020.2 |
| 20260507004930 | 57 | 203 | 4.3 | 6.1 | 0.00 | 0.00 | 0.00 | 81 | 1020.1 |
| 20260507004427 | 57 | 155 | 0.9 | 2.6 | 0.00 | 0.00 | 0.00 | 81 | 1020.2 |
| 20260507003924 | 57 | 221 | 4.3 | 7.0 | 0.00 | 0.00 | 0.00 | 81 | 1020.1 |
| 20260507003419 | 57 | 190 | 5.2 | 7.0 | 0.00 | 0.00 | 0.00 | 81 | 1020.4 |
| 20260507002914 | 57 | 199 | 2.6 | 2.6 | 0.00 | 0.00 | 0.00 | 81 | 1020.3 |
| 20260507002411 | 57 | 245 | 3.5 | 5.2 | 0.00 | 0.00 | 0.00 | 81 | 1020.1 |
| 20260507001908 | 57 | 200 | 6.1 | 7.0 | 0.00 | 0.00 | 0.00 | 81 | 1020.2 |
| 20260507001405 | 57 | 197 | 3.5 | 5.2 | 0.00 | 0.00 | 0.00 | 81 | 1020.2 |
| 20260507000902 | 57 | 203 | 3.5 | 4.3 | 0.00 | 0.00 | 0.00 | 80 | 1020.2 |
| 20260507000358 | 57 | 201 | 2.6 | 4.3 | 0.00 | 0.00 | 0.00 | 81 | 1020.2 |